Weather History for KEAT - April, 2012

Change the Weather History Date:

Friday, April 20, 2012

  Actual Average Record
Temperature  
Mean Temperature 53 °F 52 °F  
Max Temperature 65 °F 63 °F 83 °F (2009)
Min Temperature 41 °F 41 °F 27 °F (1961)
Degree Days  
Heating Degree Days 12 13  
Month to date heating degree days 318 289  
Since 1 July heating degree days 5469 5401  
Cooling Degree Days 0 0  
Month to date cooling degree days 0 0  
Year to date cooling degree days 0 2  
Growing Degree Days 3 (Base 50)    
Moisture  
Dew Point 35 °F    
Average Humidity 55    
Maximum Humidity 82    
Minimum Humidity 27    
Precipitation  
Precipitation 0.00 in 0.01 in 0.28 in (1967)
Month to date precipitation 0.23 0.31  
Year to date precipitation 3.30 2.82  
Sea Level Pressure  
Sea Level Pressure 30.06 in    
Wind  
Wind Speed 7 mph (NW)    
Max Wind Speed 20 mph    
Max Gust Speed 23 mph    
Visibility 10 miles    
Events      
T = Trace of Precipitation, MM = Missing Value Source: NWS Daily Summary

Daily Weather History Graph

Daily Weather History Graph

Search for Another Location

Airport or City:

Trip Planner

Search our weather history database for the weather conditions in past years. The results will help you decide how hot, cold, wet, or windy it might be!

Date:

Astronomy

Apr. 20, 2012 Rise Set
Actual Time 6:02 AM PDT 7:58 PM PDT
Civil Twilight 5:29 AM PDT 8:30 PM PDT
Nautical Twilight 4:48 AM PDT 9:11 PM PDT
Astronomical Twilight 4:04 AM PDT 9:56 PM PDT
Moon 5:28 AM PDT (4/20) 7:50 PM PDT (4/20)
Length of Visible Light 15h 01m
Length of Day
13h 55m
Waning Crescent, 0% of the Moon is Illuminated
Apr 20
Waning Crescent
Apr 21
New
Apr 29
First Quarter
May 5
Full
May 12
Last Quarter

Hourly Weather History & Observations

Time (PDT) Temp. Windchill Dew Point Humidity Pressure Visibility Wind Dir Wind Speed Gust Speed Precip Events Conditions
12:55 AM 45.0 °F 42.6 °F 37.9 °F 76% 30.01 in 10.0 mi NW 4.6 mph - N/A   Overcast
1:55 AM 44.1 °F 42.5 °F 37.9 °F 79% 29.99 in 10.0 mi WNW 3.5 mph - N/A   Overcast
2:55 AM 43.0 °F 40.3 °F 37.9 °F 82% 29.98 in 10.0 mi NNW 4.6 mph - N/A   Overcast
3:55 AM 43.0 °F - 37.0 °F 80% 29.97 in 10.0 mi Calm Calm - N/A   Mostly Cloudy
4:55 AM 43.0 °F 38.2 °F 37.0 °F 80% 30.00 in 10.0 mi NW 8.1 mph - N/A   Overcast
5:55 AM 42.1 °F 39.2 °F 37.0 °F 82% 30.01 in 10.0 mi WSW 4.6 mph - N/A   Partly Cloudy
6:55 AM 42.1 °F - 37.9 °F 85% 30.04 in 10.0 mi Calm Calm - N/A   Mostly Cloudy
7:55 AM 46.9 °F - 39.9 °F 77% 30.07 in 10.0 mi NNE 4.6 mph - N/A   Mostly Cloudy
8:55 AM 48.9 °F - 42.1 °F 77% 30.08 in 10.0 mi Calm Calm - N/A   Clear
9:55 AM 54.0 °F - 39.9 °F 59% 30.09 in 10.0 mi NNW 8.1 mph - N/A   Clear
10:55 AM 57.9 °F - 39.0 °F 49% 30.09 in 10.0 mi NW 9.2 mph - N/A   Clear
11:55 AM 59.0 °F - 37.9 °F 46% 30.09 in 10.0 mi Calm Calm - N/A   Scattered Clouds
12:55 PM 61.0 °F - 37.9 °F 42% 30.08 in 10.0 mi Variable 5.8 mph - N/A   Partly Cloudy
1:55 PM 64.0 °F - 36.0 °F 35% 30.07 in 10.0 mi WNW 11.5 mph - N/A   Partly Cloudy
2:55 PM 64.0 °F - 36.0 °F 35% 30.07 in 10.0 mi Variable 4.6 mph - N/A   Clear
3:55 PM 63.0 °F - 35.1 °F 35% 30.07 in 10.0 mi WSW 6.9 mph - N/A   Scattered Clouds
4:55 PM 64.9 °F - 30.9 °F 28% 30.07 in 10.0 mi West 6.9 mph - N/A   Clear
5:55 PM 64.0 °F - 30.9 °F 29% 30.06 in 10.0 mi WNW 11.5 mph - N/A   Clear
6:55 PM 61.0 °F - 27.0 °F 27% 30.07 in 10.0 mi NW 17.3 mph - N/A   Clear
7:55 PM 57.9 °F - 27.0 °F 31% 30.08 in 10.0 mi NW 15.0 mph - N/A   Clear
8:55 PM 55.0 °F - 28.0 °F 35% 30.10 in 10.0 mi NW 15.0 mph - N/A   Clear
9:55 PM 53.1 °F - 28.9 °F 40% 30.11 in 10.0 mi NW 13.8 mph 18.4 mph N/A   Clear
10:55 PM 51.1 °F - 30.0 °F 44% 30.12 in 10.0 mi NNW 8.1 mph - N/A   Clear
11:55 PM 50.0 °F - 30.0 °F 46% 30.13 in 10.0 mi NNW 8.1 mph - N/A   Clear